TimeAKDT,TemperatureF,Dew PointF,Humidity,Sea Level PressureIn,VisibilityMPH,Wind Direction,Wind SpeedMPH,Gust SpeedMPH,PrecipitationIn,Events,Conditions,WindDirDegrees,DateUTC
12:53 AM,24.8,21.2,86,29.78,10.0,WNW,10.4,-,N/A,,Clear,300,2014-05-07 08:53:00
1:53 AM,24.1,21.0,88,29.79,10.0,WNW,11.5,-,N/A,,Clear,300,2014-05-07 09:53:00
2:53 AM,23.0,21.0,92,29.79,10.0,WNW,8.1,-,N/A,,Clear,300,2014-05-07 10:53:00
3:53 AM,21.9,19.9,92,29.80,10.0,WNW,9.2,-,N/A,,Clear,290,2014-05-07 11:53:00
4:53 AM,21.9,19.9,92,29.81,10.0,WNW,11.5,-,N/A,,Clear,290,2014-05-07 12:53:00
5:53 AM,19.9,18.0,92,29.82,10.0,WNW,11.5,-,N/A,,Clear,290,2014-05-07 13:53:00
6:53 AM,21.0,19.0,92,29.84,10.0,WNW,11.5,-,N/A,,Clear,300,2014-05-07 14:53:00
7:53 AM,21.9,19.0,89,29.84,10.0,WNW,10.4,-,N/A,,Clear,290,2014-05-07 15:53:00
8:53 AM,21.9,18.0,85,29.86,10.0,WNW,10.4,-,N/A,,Clear,300,2014-05-07 16:53:00
9:53 AM,21.9,18.0,85,29.88,10.0,West,10.4,-,N/A,,Clear,270,2014-05-07 17:53:00
10:53 AM,21.9,17.1,82,29.88,10.0,West,10.4,-,N/A,,Clear,260,2014-05-07 18:53:00
11:53 AM,23.0,18.0,81,29.88,10.0,West,15.0,-,N/A,,Clear,260,2014-05-07 19:53:00
12:53 PM,24.1,19.0,81,29.89,10.0,West,15.0,-,N/A,,Clear,270,2014-05-07 20:53:00
1:53 PM,26.1,19.9,78,29.90,10.0,West,16.1,-,N/A,,Clear,270,2014-05-07 21:53:00
2:53 PM,27.0,21.9,81,29.91,10.0,West,15.0,-,N/A,,Clear,270,2014-05-07 22:53:00
3:53 PM,28.0,21.0,75,29.91,10.0,West,13.8,-,N/A,,Clear,270,2014-05-07 23:53:00
4:53 PM,28.0,21.9,78,29.92,10.0,West,12.7,-,N/A,,Clear,270,2014-05-08 00:53:00
5:53 PM,28.0,21.9,78,29.93,10.0,West,15.0,-,N/A,,Clear,270,2014-05-08 01:53:00
6:53 PM,28.0,21.9,78,29.94,10.0,West,13.8,-,N/A,,Clear,270,2014-05-08 02:53:00
7:53 PM,28.0,21.0,75,29.94,10.0,West,11.5,-,N/A,,Clear,270,2014-05-08 03:53:00
8:53 PM,27.0,21.0,78,29.94,10.0,WNW,10.4,-,N/A,,Clear,290,2014-05-08 04:53:00
9:53 PM,26.1,21.0,81,29.94,10.0,WNW,6.9,-,N/A,,Clear,290,2014-05-08 05:53:00
10:53 PM,24.8,21.2,86,29.94,10.0,West,4.6,-,N/A,,Clear,280,2014-05-08 06:53:00
11:53 PM,23.0,19.9,88,29.94,10.0,SW,5.8,-,N/A,,Scattered Clouds,230,2014-05-08 07:53:00